This demonstration page uses our WeatherBlox Daily Observations layout. Learn more.

Left ArrowRight Arrow

Hourly Observations for January 5, 2018

Temp ( °F °C ) Dew Point ( °F °C ) Humidity (%) Winds ( mph kmh ) Pressure ( in mb ) Visibility ( mi km ) Precip ( " mm )
12:56 am 00:56 Clear 17 -8.3 15 -9.4 92 92 N 5 7 30.29 1026 9 14 0.00 0.00
1:56 am 01:56 Clear 14 -10 13 -10.6 95 95 NNW 6 9 30.30 1026 10 16 0.00 0.00
2:56 am 02:56 Clear 14 -10 12 -11.1 92 92 NNE 5 7 30.31 1026 9 14 0.00 0.00
3:56 am 03:56 Clear 14 -10 12 -11.1 92 92 NNE 8 13 30.32 1027 10 16 0.00 0.00
4:56 am 04:56 Clear 11 -11.7 9 -12.8 92 92 NNE 10 17 30.33 1027 10 16 0.00 0.00
5:56 am 05:56 Clear 11 -11.7 9 -12.8 92 92 N 7 11 30.36 1028 10 16 0.00 0.00
6:56 am 06:56 Clear 9 -12.8 6 -14.4 88 88 ENE 7 11 30.38 1029 10 16 0.00 0.00
7:56 am 07:56 Clear 9 -12.8 7 -13.9 92 92 ENE 9 15 30.40 1029 9 14 0.00 0.03
8:03 am 08:03 Partly Cloudy with Scattered Snow Showers 9 -13 7 -14 92 92 ENE 13 20 30.50 1033 9 14 0.00 0.00
8:23 am 08:23 Mostly Cloudy 10 -12 7 -14 85 85 ENE 12 19 30.48 1032 7 11 0.00 0.00
8:34 am 08:34 Mostly Cloudy with Mist and Fog 10 -12 7 -14 85 85 ENE 12 19 30.48 1032 6 10 0.00 0.03
8:56 am 08:56 Mostly Cloudy with Mist and Fog 10 -12.2 7 -13.9 87 87 ENE 10 17 30.43 1030 6 10 0.00 0.03
9:26 am 09:26 Cloudy with Light Snow 10 -12 7 -14 85 85 ENE 10 17 30.50 1033 2 3 0.00 0.03
9:56 am 09:56 Cloudy with Light Snow 11 -11.7 8 -13.3 88 88 E 9 15 30.44 1031 2 3 0.00 0.03
10:20 am 10:20 Cloudy with Light Snow 12 -11 10 -12 92 92 E 10 17 30.50 1033 1 2 0.00 0.03
10:34 am 10:34 Cloudy with Light Snow 12 -11 9 -13 85 85 E 10 17 30.53 1034 2 3 0.00 0.03
10:56 am 10:56 Cloudy with Light Snow 12 -11.1 9 -12.8 87 87 E 10 17 30.45 1031 2 3 0.00 0.03
11:56 am 11:56 Cloudy with Light Snow 13 -10.6 11 -11.7 92 92 E 9 15 30.44 1031 2 3 0.00 0.03
12:56 pm 12:56 Cloudy with Light Snow 15 -9.4 12 -11.1 88 88 E 6 9 30.43 1031 3 4 0.00 0.03
1:21 pm 13:21 Cloudy with Light Snow 18 -8 12 -11 79 79 ESE 5 7 30.48 1032 3 5 0.00 0.00
1:56 pm 13:56 Cloudy with Light Snow 17 -8.3 12 -11.1 80 80 SE 7 11 30.41 1030 3 5 0.00 0.03
2:56 pm 14:56 Cloudy with Light Snow 16 -8.9 12 -11.1 84 84 E 7 11 30.41 1030 4 6 0.00 0.03
3:07 pm 15:07 Hazy 18 -8 12 -11 79 79 E 7 11 30.45 1031 5 8 0.00 0.03
3:56 pm 15:56 Sunny 16 -8.9 11 -11.7 80 80 E 8 13 30.42 1030 7 11 0.00 0.03
4:56 pm 16:56 Sunny 16 -8.9 11 -11.7 80 80 E 8 13 30.43 1031 10 16 0.00 0.00
6:56 pm 18:56 Clear 12 -11.1 8 -13.3 84 84 E 8 13 30.48 1032 10 16 0.00 0.00
7:56 pm 19:56 Clear 10 -12.2 7 -13.9 87 87 E 10 17 30.50 1033 10 16 0.00 0.00
8:56 pm 20:56 Clear 9 -12.8 6 -14.4 88 88 E 7 11 30.50 1033 10 16 0.00 0.00
9:56 pm 21:56 Clear 8 -13.3 5 -15 87 87 E 6 9 30.50 1033 10 16 0.00 0.00
10:56 pm 22:56 Clear 7 -13.9 4 -15.6 87 87 SE 6 9 30.51 1033 10 16 0.00 0.00
11:56 pm 23:56 Clear 7 -13.9 4 -15.6 87 87 ESE 6 9 30.52 1034 9 14 0.00 0.00

Powered by AerisWeather